TimeCST,TemperatureF,Dew PointF,Humidity,Sea Level PressureIn,VisibilityMPH,Wind Direction,Wind SpeedMPH,Gust SpeedMPH,PrecipitationIn,Events,Conditions,WindDirDegrees,DateUTC
12:16 AM,19.6,15.8,85,30.06,7.0,NNW,13.8,25.3,N/A,,Overcast,340,2012-12-31 06:16:00
12:36 AM,18.5,14.7,85,30.07,10.0,North,17.3,24.2,N/A,,Overcast,350,2012-12-31 06:36:00
12:56 AM,18.1,14.0,84,30.07,10.0,NNW,16.1,25.3,N/A,,Overcast,340,2012-12-31 06:56:00
1:16 AM,17.6,13.6,84,30.08,10.0,NNW,15.0,18.4,N/A,,Overcast,340,2012-12-31 07:16:00
1:55 AM,17.4,13.5,84,30.10,10.0,NNW,11.5,-,N/A,,Overcast,340,2012-12-31 07:55:00
2:36 AM,17.6,13.6,84,30.12,10.0,NNW,13.8,20.7,N/A,,Overcast,340,2012-12-31 08:36:00
2:56 AM,17.2,13.1,84,30.12,10.0,NNW,11.5,19.6,N/A,Snow,Light Snow,330,2012-12-31 08:56:00
3:16 AM,16.3,12.2,84,30.13,10.0,NNW,11.5,-,N/A,Snow,Light Snow,330,2012-12-31 09:16:00
3:36 AM,15.8,11.5,83,30.13,10.0,NNW,10.4,-,N/A,,Mostly Cloudy,330,2012-12-31 09:36:00
3:56 AM,15.6,11.1,82,30.12,10.0,NW,10.4,-,N/A,,Overcast,320,2012-12-31 09:56:00
4:16 AM,16.3,11.3,81,30.14,10.0,NW,10.4,-,N/A,,Overcast,320,2012-12-31 10:16:00
4:36 AM,16.5,11.3,80,30.11,10.0,NNW,12.7,-,N/A,Snow,Light Snow,330,2012-12-31 10:36:00
4:56 AM,16.3,11.3,81,30.12,10.0,NNW,10.4,-,N/A,,Overcast,330,2012-12-31 10:56:00
5:16 AM,16.0,11.1,81,30.14,10.0,NNW,8.1,-,N/A,Snow,Light Snow,330,2012-12-31 11:16:00
5:36 AM,15.8,10.4,79,30.16,10.0,NNW,8.1,-,N/A,,Overcast,330,2012-12-31 11:36:00
5:56 AM,15.6,10.8,81,30.17,10.0,Calm,Calm,-,N/A,Snow,Light Snow,0,2012-12-31 11:56:00
6:16 AM,15.3,10.9,83,30.16,7.0,North,6.9,-,N/A,Snow,Light Snow,350,2012-12-31 12:16:00
6:36 AM,14.9,11.1,85,30.15,7.0,North,8.1,-,N/A,Snow,Light Snow,350,2012-12-31 12:36:00
6:56 AM,14.9,10.4,82,30.15,10.0,North,11.5,-,N/A,Snow,Light Snow,350,2012-12-31 12:56:00
7:16 AM,13.6,8.4,80,30.16,10.0,North,15.0,-,N/A,Snow,Light Snow,350,2012-12-31 13:16:00
7:36 AM,12.7,7.7,80,30.17,10.0,North,11.5,-,N/A,Snow,Light Snow,350,2012-12-31 13:36:00
7:56 AM,12.2,7.2,80,30.17,10.0,North,11.5,-,N/A,,Overcast,350,2012-12-31 13:56:00
8:16 AM,11.7,5.9,78,30.18,10.0,North,15.0,-,N/A,Snow,Light Snow,350,2012-12-31 14:16:00
8:36 AM,11.3,5.9,79,30.19,10.0,North,13.8,-,N/A,Snow,Light Snow,360,2012-12-31 14:36:00
8:56 AM,10.9,5.4,78,30.18,7.0,North,16.1,20.7,N/A,Snow,Light Snow,350,2012-12-31 14:56:00
9:16 AM,10.4,5.0,79,30.20,7.0,North,16.1,-,N/A,Snow,Light Snow,350,2012-12-31 15:16:00
9:36 AM,10.2,5.0,79,30.21,5.0,North,10.4,-,N/A,Snow,Light Snow,360,2012-12-31 15:36:00
9:56 AM,10.0,5.4,81,30.21,4.0,NNW,11.5,16.1,N/A,Snow,Light Snow,340,2012-12-31 15:56:00
10:16 AM,9.7,4.1,78,30.21,7.0,North,11.5,-,N/A,Snow,Light Snow,360,2012-12-31 16:16:00
10:36 AM,9.5,4.6,81,30.21,5.0,North,11.5,-,N/A,Snow,Light Snow,360,2012-12-31 16:36:00
10:56 AM,9.5,4.1,79,30.21,7.0,North,12.7,-,N/A,Snow,Light Snow,360,2012-12-31 16:56:00
11:16 AM,8.6,2.3,76,30.21,10.0,North,13.8,-,N/A,,Overcast,350,2012-12-31 17:16:00
11:36 AM,8.2,1.6,74,30.21,10.0,NNW,11.5,-,N/A,,Mostly Cloudy,340,2012-12-31 17:36:00
11:55 AM,7.7,0.1,71,30.20,10.0,North,11.5,-,N/A,,Scattered Clouds,350,2012-12-31 17:55:00
12:16 PM,7.5,-0.0,71,30.20,10.0,NNW,10.4,-,N/A,,Clear,340,2012-12-31 18:16:00
12:36 PM,7.5,-0.4,70,30.21,10.0,North,11.5,-,N/A,,Clear,350,2012-12-31 18:36:00
12:56 PM,7.3,-0.8,69,30.20,10.0,North,11.5,-,N/A,,Clear,350,2012-12-31 18:56:00
1:15 PM,7.0,-0.4,72,30.20,10.0,NNW,9.2,-,N/A,,Clear,340,2012-12-31 19:15:00
1:36 PM,6.8,-0.4,72,30.20,10.0,NNW,8.1,-,N/A,,Clear,330,2012-12-31 19:36:00
1:56 PM,7.2,-0.2,72,30.19,10.0,NNW,9.2,-,N/A,,Clear,340,2012-12-31 19:56:00
2:15 PM,6.8,-0.6,72,30.19,10.0,NNW,8.1,-,N/A,,Clear,340,2012-12-31 20:15:00
2:36 PM,6.6,-0.8,72,30.20,10.0,NNW,9.2,-,N/A,,Clear,340,2012-12-31 20:36:00
2:56 PM,6.3,-1.3,71,30.20,10.0,NNW,9.2,-,N/A,,Clear,330,2012-12-31 20:56:00
3:16 PM,5.9,-1.3,72,30.21,10.0,NNW,9.2,-,N/A,,Clear,330,2012-12-31 21:16:00
3:36 PM,5.7,-1.3,73,30.21,10.0,NNW,6.9,-,N/A,,Clear,340,2012-12-31 21:36:00
3:56 PM,4.8,-2.0,73,30.21,10.0,NNW,9.2,-,N/A,,Clear,340,2012-12-31 21:56:00
4:16 PM,4.1,-2.2,75,30.21,10.0,NNW,9.2,-,N/A,,Clear,330,2012-12-31 22:16:00
4:36 PM,3.2,-2.9,76,30.21,10.0,NNW,5.8,-,N/A,,Clear,330,2012-12-31 22:36:00
4:56 PM,1.9,-4.0,76,30.20,10.0,NNW,6.9,-,N/A,,Clear,330,2012-12-31 22:56:00
5:15 PM,-0.4,-5.1,81,30.21,10.0,NW,6.9,-,N/A,,Clear,320,2012-12-31 23:15:00
5:36 PM,-0.8,-5.1,82,30.21,10.0,NW,6.9,-,N/A,,Clear,310,2012-12-31 23:36:00
5:56 PM,0.3,-4.4,81,30.22,10.0,WNW,5.8,-,N/A,,Clear,300,2012-12-31 23:56:00
6:16 PM,-0.4,-5.1,81,30.22,10.0,WNW,4.6,-,N/A,,Clear,290,2013-01-01 00:16:00
6:35 PM,-1.1,-6.0,80,30.22,10.0,NW,6.9,-,N/A,,Clear,310,2013-01-01 00:35:00
6:56 PM,-2.4,-7.2,80,30.22,10.0,NW,6.9,-,N/A,,Clear,320,2013-01-01 00:56:00
7:16 PM,-2.7,-7.1,82,30.22,10.0,NW,8.1,-,N/A,,Clear,320,2013-01-01 01:16:00
7:35 PM,-4.2,-8.5,82,30.22,10.0,NW,10.4,-,N/A,,Clear,310,2013-01-01 01:35:00
7:56 PM,-4.0,-8.5,81,30.22,10.0,NW,8.1,-,N/A,,Clear,310,2013-01-01 01:56:00
8:16 PM,-3.3,-7.8,81,30.22,10.0,NW,9.2,-,N/A,,Clear,310,2013-01-01 02:16:00
8:36 PM,-4.0,-8.1,82,30.22,10.0,NW,6.9,-,N/A,,Clear,320,2013-01-01 02:36:00
8:55 PM,-2.7,-6.7,83,30.22,10.0,NW,6.9,-,N/A,,Clear,320,2013-01-01 02:55:00
9:16 PM,-1.7,-5.8,83,30.22,10.0,WNW,5.8,-,N/A,,Clear,290,2013-01-01 03:16:00
9:36 PM,-1.8,-6.0,83,30.22,10.0,WNW,5.8,-,N/A,,Clear,300,2013-01-01 03:36:00
9:55 PM,-1.8,-6.2,82,30.22,10.0,WNW,5.8,-,N/A,,Clear,290,2013-01-01 03:55:00
10:16 PM,-4.0,-8.0,83,30.22,10.0,Calm,Calm,-,N/A,,Clear,0,2013-01-01 04:16:00
10:36 PM,-4.4,-8.5,82,30.23,10.0,Calm,Calm,-,N/A,,Clear,0,2013-01-01 04:36:00
10:55 PM,-4.4,-8.5,82,30.23,10.0,Calm,Calm,-,N/A,,Clear,0,2013-01-01 04:55:00
11:16 PM,-4.0,-8.0,83,30.24,10.0,Calm,Calm,-,N/A,,Clear,0,2013-01-01 05:16:00
11:36 PM,-2.4,-6.7,82,30.24,10.0,Calm,Calm,-,N/A,,Clear,0,2013-01-01 05:36:00
11:55 PM,-3.8,-8.3,81,30.24,10.0,Calm,Calm,-,N/A,,Clear,0,2013-01-01 05:55:00